Bennington, VT

6:08 AM EDT on May 27, 2017 (GMT -0400)
Morse State

Weather History for KDDH - February, 2013

Change the Weather History Date:

Monday, February 18, 2013

  Actual Average Record
Temperature  
Mean Temperature 15 °F 26 °F  
Max Temperature 25 °F 35 °F 54 °F (2017)
Min Temperature 5 °F 16 °F -12 °F (2015)
Degree Days  
Heating Degree Days 50 39  
Month to date heating degree days 759 740  
Since 1 July heating degree days 4447 4871  
Cooling Degree Days 0 0  
Month to date cooling degree days 0 0  
Year to date cooling degree days 0 0  
Moisture  
Dew Point -2 °F    
Average Humidity 50    
Maximum Humidity 70    
Minimum Humidity 30    
Precipitation  
Precipitation 0.00 in 0.08 in 0.02 in (2014)
Month to date precipitation 0.41 1.32  
Year to date precipitation 1.86 4.07  
Sea Level Pressure  
Sea Level Pressure 30.11 in    
Wind  
Wind Speed 7 mph (West)    
Max Wind Speed 13 mph    
Max Gust Speed 20 mph    
Visibility 10 miles    
Events      
T = Trace of Precipitation, MM = Missing Value Source: NWS Daily Summary

Daily Weather History Graph

Daily Weather History Graph

Search for Another Location

Airport or City:

Trip Planner

Search our weather history database for the weather conditions in past years. The results will help you decide how hot, cold, wet, or windy it might be!

Date:

Astronomy

Feb. 18, 2013 Rise Set
Actual Time 6:45 AM EST 5:28 PM EST
Civil Twilight 6:16 AM EST 5:57 PM EST
Nautical Twilight 5:43 AM EST 6:30 PM EST
Astronomical Twilight 5:11 AM EST 7:03 PM EST
Moon 11:08 AM EST (2/18) 1:26 AM EST (2/18)
Length of Visible Light 11h 40m
Length of Day
10h 43m
First Quarter, 58% of the Moon is Illuminated
Feb 18
First Quarter
Feb 25
Full
Mar 4
Last Quarter
Mar 11
New
Mar 19
First Quarter

Hourly Weather History & Observations

Time (EST) Temp. Windchill Dew Point Humidity Pressure Visibility Wind Dir Wind Speed Gust Speed Precip Events Conditions
12:54 AM 10.0 °F -5.2 °F -4.0 °F 53% 29.92 in 10.0 mi West 12.7 mph 20.7 mph N/A   Clear
1:54 AM 10.0 °F -3.7 °F -4.0 °F 53% 29.95 in 10.0 mi West 10.4 mph 18.4 mph N/A   Clear
2:54 AM 9.0 °F -5.1 °F -5.1 °F 53% 29.97 in 10.0 mi WNW 10.4 mph 19.6 mph N/A   Clear
3:54 AM 8.1 °F -2.0 °F -4.0 °F 58% 30.00 in 10.0 mi West 5.8 mph - N/A   Clear
4:54 AM 7.0 °F -8.3 °F -5.1 °F 58% 30.03 in 10.0 mi West 11.5 mph 17.3 mph N/A   Clear
5:54 AM 6.1 °F -4.3 °F -5.1 °F 60% 30.06 in 10.0 mi WSW 5.8 mph - N/A   Clear
6:54 AM 6.1 °F -7.8 °F -5.1 °F 60% 30.11 in 10.0 mi WSW 9.2 mph 17.3 mph N/A   Clear
7:54 AM 7.0 °F -1.7 °F -5.1 °F 58% 30.14 in 10.0 mi Variable 4.6 mph - N/A   Clear
8:54 AM 10.0 °F -3.7 °F -4.0 °F 53% 30.16 in 10.0 mi WNW 10.4 mph 18.4 mph N/A   Clear
9:54 AM 12.9 °F -2.8 °F -5.1 °F 45% 30.15 in 10.0 mi West 15.0 mph 21.9 mph N/A   Clear
10:54 AM 16.0 °F 1.7 °F -4.0 °F 41% 30.16 in 10.0 mi WNW 13.8 mph 23.0 mph N/A   Clear
11:54 AM 19.9 °F 9.3 °F -4.0 °F 35% 30.16 in 10.0 mi West 9.2 mph 19.6 mph N/A   Clear
12:54 PM 19.9 °F 8.6 °F -6.0 °F 32% 30.14 in 10.0 mi West 10.4 mph 18.4 mph N/A   Clear
1:54 PM 23.0 °F 13.9 °F -5.1 °F 29% 30.12 in 10.0 mi WNW 8.1 mph - N/A   Clear
2:54 PM 24.1 °F 14.4 °F -2.9 °F 31% 30.12 in 10.0 mi West 9.2 mph 19.6 mph N/A   Clear
3:54 PM 25.0 °F 19.3 °F -0.9 °F 33% 30.14 in 10.0 mi Variable 4.6 mph - N/A   Unknown
4:54 PM 23.0 °F 17.0 °F -0.0 °F 37% 30.15 in 10.0 mi Variable 4.6 mph - N/A   Clear
5:54 PM 21.9 °F 15.7 °F 1.0 °F 40% 30.16 in 10.0 mi West 4.6 mph - N/A   Clear
6:54 PM 21.0 °F - 1.9 °F 44% 30.18 in 10.0 mi Calm Calm - N/A   Clear
7:54 PM 18.0 °F - 3.0 °F 52% 30.18 in 10.0 mi Calm Calm - N/A   Clear
8:54 PM 12.9 °F - 5.0 °F 71% 30.16 in 10.0 mi Calm Calm - N/A   Clear
9:54 PM 12.9 °F - 3.9 °F 67% 30.17 in 10.0 mi Calm Calm - N/A   Clear
10:54 PM 14.0 °F - 3.9 °F 64% 30.15 in 10.0 mi Calm Calm - N/A   Clear
11:54 PM 16.0 °F 7.4 °F 5.0 °F 62% 30.15 in 10.0 mi SE 5.8 mph - N/A   Clear